Meteo Giornale » Osservazioni meteo Olanda » Lelystad

ore: 01:25 - Osservazioni Meteo Lelystad
Lat. 52° 27' N Lon. 5° 31' E Alt. -6 metri s.l.m.

sereno Europe/Amsterdam

16 °C

Sereno

Temp. 24 Ore

13 °C

19 °C

Sud/Sud-Ovest

24 Km/h

Dew point 14 °C

Umidità 87 %

Visibilità  10 Km

Il sole sorge alle ore 08:11

Il sole tramonta alle ore 18:34

Data e Ora Cielo e Fenomeni T °C DP °C Um. % Pres. hPa Vis. km Vento km/h
Oggi h: 01:25 sereno Sereno 16 14 87 1009 10 S/SO 24
Oggi h: 00:55 sereno Sereno 16 14 87 1009 10 S/SO 25.9
Oggi h: 00:25 sereno Sereno 16 14 87 1010 10 S/SO 20.3
Ieri h: 23:55 sereno Sereno 16 14 87 1010 10 S/SO 20.3
Ieri h: 23:25 sereno Sereno 16 14 87 1011 10 S/SO 20.3
Ieri h: 22:55 sereno Sereno 17 15 88 1011 10 S/SO 22.2
Ieri h: 22:25 poco_nuvoloso Poco Nuvoloso 17 15 88 1011 10 S/SO 22.2
Ieri h: 21:55 poco_nuvoloso Poco Nuvoloso 17 15 88 1011 10 S/SO 25.9
Ieri h: 21:25 molto_nuvoloso Molto Nuvoloso 17 15 88 1011 10 S/SO 25.9
Ieri h: 20:55 coperto Coperto 18 16 88 1012 10 S/SO 25.9
Ieri h: 20:25 coperto Coperto 17 16 93 1012 10 S/SO 20.3
Ieri h: 19:55 molto_nuvoloso Molto Nuvoloso 17 16 93 1012 10 S/SO 18.5
Ieri h: 19:25 molto_nuvoloso Molto Nuvoloso 17 15 88 1012 10 S/SO 20.3
Ieri h: 18:55 poco_nuvoloso Poco Nuvoloso 17 15 88 1012 10 S/SO 20.3
Ieri h: 18:25 sereno Sereno 17 15 88 1012 10 S/SO 20.3
Ieri h: 17:25 sereno Sereno 19 14 72 1012 10 SO 27.8
Ieri h: 16:55 sereno Sereno 19 15 77 1013 10 SO 27.8
Ieri h: 16:25 nuvoloso Nuvoloso 19 16 82 1013 10 SO 33.3
Ieri h: 15:55 molto_nuvoloso Molto Nuvoloso 19 16 82 1013 10 SO 27.8
Ieri h: 15:25 molto_nuvoloso Molto Nuvoloso 18 16 88 1013 10 SO 31.5
Ieri h: 14:55 foschia Foschia 18 16 88 1014 5 SO 33.3
Ieri h: 14:25 foschia Foschia 18 17 93 1014 4 S/SO 22.2
Ieri h: 13:55 foschia Foschia 17 17 100 1014 3 S/SO 20.3
Ieri h: 13:25 foschia Foschia 17 16 93 1014 3 S/SO 22.2
Ieri h: 12:55 foschia Foschia 17 16 93 1014 2 S/SO 20.3
Ieri h: 12:25 foschia Foschia 16 16 100 1015 2 S/SO 20.3
Ieri h: 11:55 coperto_pioggia Pioggia Debole 16 15 93 1015 6 S/SO 22.2
Ieri h: 11:25 foschia Foschia 16 15 93 1015 4 S/SO 18.5
Ieri h: 10:55 foschia Foschia 16 15 93 1014 4 S/SO 20.3
Ieri h: 10:25 foschia Foschia 15 15 100 1014 3 S 20.3
Ieri h: 09:25 foschia Foschia 15 14 93 1015 3 S 16.7
Ieri h: 08:55 foschia Foschia 14 14 100 1015 2 S 18.5
Ieri h: 08:25 foschia Foschia 14 14 100 1015 4 S 16.7
Ieri h: 07:55 foschia Foschia 14 14 100 1015 3 S 16.7
Ieri h: 07:25 foschia Foschia 14 13 93 1015 3 S 16.7
Ieri h: 06:25 foschia Foschia 14 13 93 1016 3 S 16.7
Ieri h: 05:55 coperto Coperto 14 13 93 1016 6 S 14.8
Ieri h: 05:25 coperto_pioggia Pioviggine 14 13 93 1016 3 S 14.8
Ieri h: 04:55 coperto Coperto 14 12 87 1016 10 S 13
Ieri h: 04:25 coperto Coperto 13 12 93 1016 10 S 14.8
Ieri h: 03:55 molto_nuvoloso Molto Nuvoloso 13 11 87 1016 10 S 16.7
Ieri h: 03:25 sereno Sereno 13 11 87 1017 10 S 14.8
Ieri h: 02:55 sereno Sereno 13 11 87 1017 10 S 16.7
Ieri h: 02:25 sereno Sereno 13 11 87 1017 10 S 14.8
Ieri h: 01:55 sereno Sereno 13 11 87 1017 10 S 14.8